CW9927 Weather Reports


time (UTC)temp
F
wind
direction
speed
knots
gust
knots
rain 1hr
in
rain 24hr
in
rain mn
in
humidity
%
barometer
mb
20260905020138 71 0.0 0.0 0.00 0.05 0.05 50 1013.1
20260905015117 72 0.0 0.0 0.00 0.05 0.05 50 1013.2
20260905014118 73 0.0 0.0 0.00 0.05 0.05 49 1013.3
20260905013117 73 0.0 0.0 0.00 0.05 0.05 48 1013.3
20260905012117 74 0.0 0.0 0.00 0.05 0.05 48 1013.2
20260905011117 75 248 2.6 7.0 0.00 0.05 0.05 49 1013.3
20260905005317 75 0.0 0.0 0.00 0.05 0.05 50 1013.1
20260905004317 76 0.0 0.0 0.00 0.05 0.05 50 1013.0
20260905003317 76 0.0 0.0 0.00 0.05 0.05 49 1013.0
20260905002317 76 0.0 0.0 0.00 0.05 0.05 50 1013.0
20260905001317 77 0.0 0.0 0.00 0.05 0.05 49 1013.0
20260905000318 77 0.0 0.0 0.00 0.05 0.05 48 1013.0
20260904235317 78 0.0 0.0 0.00 0.05 0.05 48 1013.0
20260904234317 78 225 1.7 7.8 0.00 0.05 0.05 48 1013.0
20260904233317 78 0.0 0.0 0.00 0.05 0.05 49 1013.0
20260904232317 79 0.0 0.0 0.00 0.05 0.05 49 1012.9
20260904231317 79 0.0 0.0 0.00 0.05 0.05 51 1013.0
20260904230358 79 0.0 0.0 0.00 0.05 0.05 51 1013.0
20260904225317 80 0.0 0.0 0.00 0.05 0.05 50 1013.1
20260904224337 81 0.0 0.0 0.00 0.05 0.05 49 1013.1
20260904223338 82 0.0 0.0 0.00 0.05 0.05 49 1013.2
20260904222317 81 0.0 0.0 0.00 0.05 0.05 48 1013.4
20260904221317 82 0.0 0.0 0.00 0.05 0.05 48 1013.4
20260904220337 81 0.0 0.0 0.00 0.05 0.05 49 1013.5
20260904215317 81 0.0 0.0 0.00 0.05 0.05 49 1013.6
20260904214317 81 0.0 0.0 0.00 0.05 0.05 50 1013.7
20260904213317 80 0.0 0.0 0.00 0.05 0.05 49 1013.7
20260904212338 80 0.0 0.0 0.00 0.05 0.05 53 1013.7
20260904211317 79 0.0 0.0 0.00 0.05 0.05 53 1013.7
20260904210318 78 0.0 0.0 0.00 0.05 0.05 53 1013.9
20260904205338 78 0.0 0.0 0.00 0.05 0.05 54 1014.0
20260904204317 78 0.0 0.0 0.00 0.05 0.05 56 1014.0
20260904203337 76 0.0 0.0 0.00 0.05 0.05 59 1014.2
20260904202317 76 0.0 0.0 0.00 0.05 0.05 58 1014.2
20260904201317 76 0.0 0.0 0.00 0.05 0.05 60 1014.4
20260904200317 75 0.0 0.0 0.00 0.05 0.05 61 1014.4
20260904195317 75 0.0 0.0 0.00 0.05 0.05 61 1014.5
20260904194317 74 0.0 0.0 0.00 0.05 0.05 61 1014.5
20260904193337 74 0.0 0.0 0.00 0.05 0.05 61 1014.5
20260904192337 74 0.0 0.0 0.00 0.05 0.05 63 1014.6
20260904191317 73 0.0 0.0 0.00 0.05 0.05 65 1014.7
20260904190348 72 0.0 0.0 0.00 0.05 0.05 61 1014.7
20260904190217 72 0.0 0.0 0.00 0.05 0.05 62 1014.8
20260904185116 72 0.0 0.0 0.00 0.05 0.05 64 1014.8
20260904184116 71 0.0 0.0 0.00 0.05 0.05 66 1014.9
20260904183118 70 0.0 0.0 0.00 0.05 0.05 69 1014.9
20260904182116 69 0.0 0.0 0.00 0.05 0.05 72 1015.0
20260904181118 68 0.0 0.0 0.00 0.05 0.05 74 1015.0
20260904180116 67 0.0 0.0 0.00 0.05 0.05 77 1015.1
20260904175116 67 0.0 0.0 0.00 0.05 0.05 80 1015.1
20260904174116 67 0.0 0.0 0.00 0.05 0.05 84 1015.1
20260904173138 65 0.0 0.0 0.00 0.05 0.05 88 1015.1
20260904172116 64 0.0 0.0 0.00 0.05 0.05 90 1015.0
20260904171116 63 0.0 0.0 0.00 0.05 0.05 93 1015.1
20260904170116 62 0.0 0.0 0.00 0.05 0.05 95 1015.0
20260904165116 61 0.0 0.0 0.00 0.05 0.05 94 1015.0
20260904164116 61 0.0 0.0 0.00 0.05 0.05 95 1015.0
20260904163116 62 0.0 0.0 0.00 0.05 0.05 96 1015.0
20260904162156 61 0.0 0.0 0.00 0.05 0.05 96 1014.9
20260904161118 61 0.0 0.0 0.00 0.05 0.05 95 1014.9
20260904160116 61 0.0 0.0 0.00 0.05 0.05 96 1014.8
20260904155116 61 0.0 0.0 0.00 0.05 0.05 95 1014.8
20260904154116 61 0.0 0.0 0.00 0.05 0.05 96 1014.8
20260904153136 60 0.0 0.0 0.00 0.05 0.05 95 1014.7
20260904152118 60 0.0 0.0 0.00 0.05 0.05 95 1014.7
20260904151136 60 0.0 0.0 0.00 0.05 0.05 95 1014.7
20260904150118 60 0.0 0.0 0.00 0.05 0.05 95 1014.6
20260904145116 60 0.0 0.0 0.00 0.05 0.05 95 1014.5
20260904144116 60 0.0 0.0 0.00 0.05 0.05 95 1014.3
20260904143116 59 0.0 0.0 0.00 0.05 0.05 95 1014.2
20260904142116 59 0.0 0.0 0.00 0.05 0.05 95 1014.3
20260904141116 59 0.0 0.0 0.00 0.05 0.05 95 1014.1
20260904140116 59 0.0 0.0 0.00 0.05 0.05 95 1014.0
20260904135116 59 0.0 0.0 0.00 0.05 0.05 94 1013.8
20260904134116 59 0.0 0.0 0.01 0.05 0.05 94 1013.8
20260904133116 60 0.0 0.0 0.01 0.05 0.05 95 1013.6
20260904132116 60 0.0 0.0 0.01 0.05 0.05 95 1013.6
20260904131116 60 0.0 0.0 0.01 0.05 0.05 94 1013.4
20260904125317 60 0.0 0.0 0.01 0.05 0.05 94 1013.4
20260904124317 60 0.0 0.0 0.00 0.04 0.04 94 1013.3
20260904123317 59 0.0 0.0 0.00 0.04 0.04 94 1013.2
20260904122338 60 0.0 0.0 0.00 0.04 0.04 94 1013.3
20260904121337 60 0.0 0.0 0.00 0.04 0.04 94 1013.2
20260904120317 60 0.0 0.0 0.00 0.04 0.04 94 1013.2
20260904115317 60 0.0 0.0 0.00 0.04 0.04 94 1013.1
20260904114317 60 0.0 0.0 0.00 0.04 0.04 93 1013.1
20260904113317 60 0.0 0.0 0.01 0.04 0.04 93 1013.1
20260904112337 60 0.0 0.0 0.01 0.04 0.04 93 1013.0
20260904111317 60 0.0 0.0 0.02 0.04 0.04 93 1013.0
20260904110337 60 0.0 0.0 0.02 0.04 0.04 93 1012.9
20260904105317 60 0.0 0.0 0.03 0.04 0.04 92 1012.9
20260904104317 60 0.0 0.0 0.03 0.04 0.04 92 1012.9
20260904103319 60 0.0 0.0 0.02 0.03 0.03 92 1012.8
20260904102319 61 0.0 0.0 0.02 0.03 0.03 91 1012.8
20260904101317 61 0.0 0.0 0.01 0.02 0.02 91 1012.8
20260904100317 61 0.0 0.0 0.02 0.02 0.02 91 1012.8
20260904095337 62 0.0 0.0 0.01 0.01 0.01 90 1012.8
20260904094317 63 0.0 0.0 0.01 0.01 0.01 91 1012.7
20260904093317 63 0.0 0.0 0.01 0.01 0.01 91 1012.7
20260904092317 63 0.0 0.0 0.01 0.01 0.01 91 1012.7
20260904091317 63 0.0 0.0 0.01 0.01 0.01 91 1012.7
20260904090417 63 0.0 0.0 0.00 0.00 0.00 90 1012.8
20260904085317 63 0.0 0.0 0.00 0.00 0.00 90 1012.9
20260904084337 63 0.0 0.0 0.00 0.00 0.00 90 1012.8
20260904083318 63 0.0 0.0 0.00 0.00 0.00 90 1012.9
20260904082317 63 0.0 0.0 0.00 0.00 0.00 90 1012.9
20260904081357 63 0.0 0.0 0.00 0.00 0.00 90 1012.9
20260904080317 62 0.0 0.0 0.00 0.00 0.00 90 1012.9
20260904075338 62 0.0 0.0 0.00 0.00 0.00 90 1012.9
20260904074338 62 0.0 0.0 0.00 0.00 0.00 90 1012.9
20260904073317 62 0.0 0.0 0.00 0.00 0.00 90 1012.8
20260904072337 62 0.0 0.0 0.00 0.00 0.00 89 1012.7
20260904071337 62 0.0 0.0 0.00 0.00 0.00 89 1012.8
20260904070335 62 0.0 0.0 0.00 0.00 0.00 89 1012.9
20260904070233 62 0.0 0.0 0.00 0.00 0.00 89 1012.8
20260904065118 62 0.0 0.0 0.00 0.00 0.00 89 1012.8
20260904064118 62 0.0 0.0 0.00 0.00 0.00 88 1012.9
20260904063118 62 0.0 0.0 0.00 0.00 0.00 89 1013.0
20260904062138 62 0.0 0.0 0.00 0.00 0.00 88 1012.9
20260904061117 62 0.0 0.0 0.00 0.00 0.00 88 1013.0
20260904060117 63 0.0 0.0 0.00 0.00 0.00 88 1012.9
20260904055118 63 0.0 0.0 0.00 0.00 0.00 88 1013.0
20260904054117 63 0.0 0.0 0.00 0.00 0.00 88 1013.1
20260904053117 63 0.0 0.0 0.00 0.00 0.00 88 1013.2
20260904052118 63 0.0 0.0 0.00 0.00 0.00 88 1013.3
20260904051117 63 0.0 0.0 0.00 0.00 0.00 88 1013.3
20260904050135 63 0.0 0.0 0.00 0.00 0.00 88 1013.3
20260904045116 63 0.0 0.0 0.00 0.00 0.00 87 1013.4
20260904044116 63 0.0 0.0 0.00 0.00 0.00 87 1013.4
20260904043157 63 0.0 0.0 0.00 0.00 0.00 87 1013.4
20260904042116 63 0.0 0.0 0.00 0.00 0.00 87 1013.3
20260904041116 63 0.0 0.0 0.00 0.00 0.00 87 1013.3
20260904040116 64 0.0 0.0 0.00 0.00 0.00 87 1013.2
20260904035116 64 0.0 0.0 0.00 0.00 0.00 86 1013.1
20260904034157 64 0.0 0.0 0.00 0.00 0.00 85 1013.0
20260904033137 63 0.0 0.0 0.00 0.00 0.00 85 1012.9
20260904032136 63 0.0 0.0 0.00 0.00 0.00 84 1012.8
20260904031116 63 0.0 0.0 0.00 0.00 0.00 83 1012.8
20260904030116 63 0.0 0.0 0.00 0.00 0.00 82 1012.8
20260904025138 64 0.0 0.0 0.00 0.00 0.00 82 1012.8
20260904024116 64 0.0 0.0 0.00 0.00 0.00 81 1012.7
20260904023119 65 0.0 0.0 0.00 0.00 0.00 79 1012.7
20260904022137 66 0.0 0.0 0.00 0.00 0.00 78 1012.8
20260904021116 66 0.0 0.0 0.00 0.00 0.00 76 1012.8